Flag for France Weather past 2 weeks in Bordeaux, France

Now
54 °F

Mostly cloudy.


Feels Like: 51 °F
Forecast: 50 / 56 °F
Wind: 8 mph from Southwest

Location: Bordeaux / Merignac

Current Time: Dec 18, 2014 at 7:47:57 PM

Latest Report: Dec 18, 2014 at 7:00 PM


Visibility: N/A

Pressure: 30.39 "Hg

Humidity: 94%

Dew point: 52 °F

Location of BordeauxLocation

Historic Weather in Bordeaux — Graph

°F

Bordeaux temperature yesterday

Maximum temperature yesterday: 55 °F (at 10:00 AM)
Minimum temperature yesterday: 46 °F (at 1:30 AM)
Average temperature yesterday: 52 °F

Past Weeks' High & Low Weather Summary

 TemperatureHumidityPressure
High55 °F (Dec 10, 2:30 PM)100% (Dec 5, 6:30 AM)30.54 "Hg (Dec 5, 6:30 AM)
Low28 °F (Dec 7, 8:30 AM)54% (Dec 6, 3:00 PM)29.77 "Hg (Dec 13, 3:00 AM)
Average46 °F87%30.17 "Hg
* Reported Dec 3 6:00 PM — Dec 18 6:30 PM, Bordeaux, Weather by CustomWeather, © 2014

Note: Actual official high and low records may vary slightly from our data, if they occured in-between our weather recording intervals... More about our weather records

Advertising

Bordeaux weather history for previous 24 hours

 ConditionsComfort  
Time TempWeatherWind HumidityBarometerVisibility
6:30 PM
Dec 18
54 °FOvercast.7 mph94%30.39 "HgN/A
6:00 PM54 °FOvercast.8 mph94%30.39 "HgN/A
5:30 PM54 °FMostly cloudy.7 mph94%30.39 "HgN/A
5:00 PM54 °FPartly sunny.10 mph94%30.36 "HgN/A
4:30 PM54 °FPartly sunny.10 mph100%30.36 "Hg4 mi
4:00 PM55 °FPartly sunny.12 mph94%30.36 "Hg4 mi
3:30 PM55 °FFog.13 mph94%30.36 "Hg2 mi
3:00 PM55 °FBroken clouds.9 mph94%30.36 "HgN/A
2:30 PM55 °FMostly cloudy.12 mph94%30.36 "Hg6 mi
2:00 PM55 °FMostly cloudy.12 mph94%30.36 "HgN/A
1:30 PM55 °FFog.10 mph94%30.36 "Hg2 mi
1:00 PM55 °FMostly cloudy.14 mph94%30.36 "Hg5 mi
12:30 PM55 °FDrizzle. Mostly cloudy.8 mph94%30.36 "Hg4 mi
12:00 PM55 °FLight rain. Mostly cloudy.13 mph94%30.36 "Hg5 mi
11:30 AM55 °FLight rain. Mostly cloudy.9 mph94%30.36 "Hg4 mi
11:00 AM55 °FMostly cloudy.10 mph94%30.36 "HgN/A
10:30 AM55 °FDrizzle. Mostly cloudy.8 mph94%30.36 "Hg5 mi
10:00 AM55 °FDrizzle. Fog.9 mph94%30.36 "Hg3 mi
9:30 AM55 °FMostly cloudy.12 mph94%30.33 "HgN/A
9:00 AM55 °FLow clouds.10 mph94%30.33 "Hg5 mi
8:30 AM55 °FDrizzle. Low clouds.12 mph94%30.30 "Hg5 mi
8:00 AM55 °FDrizzle. Low clouds.14 mph94%30.30 "Hg4 mi
7:30 AM55 °FDrizzle. Fog.12 mph94%30.30 "Hg3 mi
7:00 AM55 °FDrizzle. Fog.16 mph94%30.27 "Hg3 mi
6:30 AM55 °FDrizzle. Fog.15 mph94%30.27 "Hg3 mi
6:00 AM55 °FDrizzle. Fog.12 mph94%30.27 "Hg3 mi
5:30 AM55 °FDrizzle. Low clouds.16 mph94%30.27 "Hg4 mi
4:30 AM55 °FDrizzle. Low clouds.14 mph94%30.27 "Hg4 mi
4:00 AM55 °FLow clouds.14 mph94%30.27 "HgN/A
3:30 AM55 °FDrizzle. Low clouds.13 mph94%30.27 "Hg4 mi
3:00 AM55 °FDrizzle. Low clouds.14 mph94%30.27 "Hg6 mi
2:30 AM55 °FDrizzle. Fog.14 mph94%30.27 "Hg3 mi
2:00 AM55 °FDrizzle. Low clouds.13 mph94%30.24 "Hg4 mi
1:30 AM55 °FDrizzle. Fog.13 mph94%30.27 "Hg3 mi
1:00 AM54 °FDrizzle. Fog.14 mph100%30.27 "Hg3 mi
12:30 AM54 °FDrizzle. Low clouds.14 mph100%30.27 "Hg4 mi
12:00 AM54 °FDrizzle. Low clouds.12 mph100%30.27 "Hg4 mi
11:30 PM
Dec 17
54 °FDrizzle. Low clouds.14 mph94%30.27 "Hg4 mi
11:00 PM54 °FLight rain. Low clouds.16 mph100%30.24 "HgN/A
10:30 PM54 °FDrizzle. Low clouds.16 mph100%30.24 "Hg6 mi
10:00 PM54 °FDrizzle. Low clouds.15 mph100%30.24 "Hg4 mi
9:30 PM54 °FDrizzle. Low clouds.18 mph100%30.24 "Hg6 mi
9:00 PM54 °FDrizzle. Low clouds.14 mph100%30.24 "Hg6 mi
8:30 PM54 °FDrizzle. Low clouds.16 mph100%30.24 "Hg5 mi
8:00 PM54 °FDrizzle. Low clouds.16 mph100%30.21 "Hg4 mi
7:30 PM54 °FDrizzle. Mostly cloudy.18 mph100%30.21 "Hg6 mi
7:00 PM54 °FDrizzle. Fog.15 mph100%30.21 "Hg3 mi
Weather by CustomWeather, © 2014

See weather overviewHow to use our weather pages